This is the latest recevied weather packets stored in our database for station/object KF0TNT. If no packets are shown the sender has not sent any weather packets the latest 10 day(s).
| Time | Temp. | Humidity | Pressure | Rain* | Wind** | Luminosity | Snow |
|---|---|---|---|---|---|---|---|
| 1778022700 | 1.11° C | 96% | 1012.4 hPa | 1.27 mm | - | 31 W/m² | - |
| 1778022397 | 1.11° C | 96% | 1012.5 hPa | 1.27 mm | - | 32 W/m² | - |
| 1778022093 | 1.11° C | 96% | 1012.4 hPa | 1.27 mm | - | 45 W/m² | - |
| 1778021790 | 1.11° C | 97% | 1012.2 hPa | 0.51 mm | - | 45 W/m² | - |
| 1778021486 | 1.11° C | 96% | 1012.3 hPa | 0.51 mm | - | 37 W/m² | - |
| 1778021183 | 1.11° C | 96% | 1012 hPa | 0 mm | - | 46 W/m² | - |
| 1778020880 | 1.11° C | 96% | 1012 hPa | 0 mm | - | 44 W/m² | - |
| 1778020577 | 1.11° C | 96% | 1012 hPa | 0.51 mm | - | 55 W/m² | - |
| 1778020273 | 1.11° C | 96% | 1011.9 hPa | 0.51 mm | - | 40 W/m² | - |
| 1778019964 | 1.11° C | 96% | 1012 hPa | 0.51 mm | - | 50 W/m² | - |
| 1778019660 | 1.11° C | 96% | 1012.2 hPa | 0.51 mm | - | 56 W/m² | - |
| 1778019358 | 1.11° C | 96% | 1011.9 hPa | 0 mm | - | 64 W/m² | - |
| 1778019054 | 1.11° C | 96% | 1012 hPa | 0 mm | - | 102 W/m² | - |
| 1778018751 | 1.11° C | 97% | 1011.9 hPa | 0 mm | - | 123 W/m² | - |
| 1778018449 | 1.11° C | 97% | 1012.2 hPa | 0 mm | - | 79 W/m² | - |
| 1778018147 | 1.11° C | 96% | 1011.9 hPa | 0 mm | - | 77 W/m² | - |
| 1778017844 | 1.11° C | 96% | 1012.3 hPa | 0 mm | - | 86 W/m² | - |
| 1778017542 | 1.11° C | 96% | 1012.3 hPa | 0 mm | - | 96 W/m² | - |
| 1778017239 | 1.11° C | 96% | 1012.3 hPa | 0 mm | - | 107 W/m² | - |
| 1778016937 | 1.11° C | 96% | 1012.5 hPa | 0.51 mm | - | 114 W/m² | - |
| 1778016633 | 1.11° C | 96% | 1012.7 hPa | 0.51 mm | - | 84 W/m² | - |
| 1778016329 | 1.11° C | 96% | 1012.4 hPa | 0 mm | - | 108 W/m² | - |
| 1778016027 | 1.11° C | 95% | 1012.5 hPa | 0.51 mm | - | 77 W/m² | - |
| 1778015724 | 1.67° C | 95% | 1012.9 hPa | 0.51 mm | - | 67 W/m² | - |
| 1778015420 | 1.67° C | 95% | 1012.7 hPa | 0 mm | - | 65 W/m² | - |
* Rain latest hour (hover to see other rain measurements)
** Current wind speed in m/s (hover to see current wind gust speed)